Tracking 19800 objects as of 24-Jul-2019
HD Live streaming from Space Station
objects crossing your sky now

NOAA 16 DEB

Track NOAA 16 DEB now!
10-day predictions


NORAD ID: 41707
Int'l Code: 2000-055PM
Perigee: 809.2 km
Apogee: 855.9 km
Inclination: 98.8 °
Period: 101.4 minutes
Semi major axis: 7203 km
RCS: Unknown
Launch date: September 21, 2000
Source: United States (US)
Launch site: AIR FORCE WESTERN TEST RANGE (AFWTR)

Note: This is SATELLITE DEBRIS
aabbcc
Your satellite tracking list
Your tracking list is empty




NASA's NSSDC Master Catalog

Two Line Element Set (TLE):
1 41707U 00055PM  19205.01389490  .00000681  00000-0  33986-3 0  9997
2 41707  98.8270 290.4218 0032419 276.4486  83.2999 14.19984644169003
Source of the keplerian elements: AFSPC